Weather in Angelholm

Sweden     56°17′18″N   12°51′05″E
temp.,
°C
wind,
m/s
gust,
m/s
humid.,
%
clouds,
%
prec.,
mm/h
press.,
hPa
HPBL,
m
19 june, sat
sat1923:00+19e3384100 0.0 101332
02:00+19ese5106964 0.0 1013151
05:00+19se59790 0.0 1011117
08:00+22sse611752 0.0 1011258
11:00+23s577685 1.1 1011243
14:00+22sw3483100 6.7 1012321
17:00+22wsw358433 2.3 1012352
20:00+19w51087100 2.3 1012302
20 june, sun
sun2023:00+17wsw3794100 0.0 1013165
02:00+16w23943 0.0 101348
05:00+15se119541 0.0 101131
08:00+18e228410 0.0 1011222
11:00+23se36665 0.0 1009574
14:00+26sse79625 0.3 10061008
17:00+23s7107399 1.1 1005525
20:00+20sw47948 4.1 1005332
21 june, mon
mon2123:00+17wsw7109577 0.3 1007431
02:00+15w5686100 0.4 1008450
05:00+13w348598 0.1 1009401
08:00+15wnw3477100 0.1 1009585
11:00+15nnw447888 0.0 1009439
14:00+18n556712 0.0 1008479
17:00+15nw9118290 0.4 1007529
20:00+14nw71088100 1.1 1007539
22 june, tue
tue2223:00+14wnw689398 0.9 1008540
02:00+13wsw5785100 0.9 1008353
05:00+12sw468915 0.0 1009262
08:00+14sw568341 0.0 1010579
11:00+16wsw567211 0.0 1011733
14:00+17w66710 0.0 1012610
17:00+17w567068 0.0 1013492
20:00+16nw458185 0.0 1014341
23 june, wed
wed2323:00+14nnw458924 0.0 1015212
02:00+13nnw3486100 0.0 1016216
05:00+12n3491100 0.0 1017144
08:00+13nne3476100 0.0 1018297
11:00+17nnw2360100 0.0 1018529
14:00+18nw4361100 0.0 1018487
17:00+17nw4572100 0.0 1018286
20:00+16nw3480100 0.0 1018236